Weather History for KFCM - December, 2012

Change the Weather History Date:

Saturday, December 29, 2012

  Actual Average Record
Temperature  
Mean Temperature 10 °F -  
Max Temperature 18 °F 24 °F 54 °F (1999)
Min Temperature 1 °F 9 °F -14 °F (2013)
Degree Days  
Heating Degree Days 56    
Moisture  
Dew Point 7 °F    
Average Humidity 82    
Maximum Humidity 88    
Minimum Humidity 70    
Precipitation  
Precipitation 0.00 in - - ()
Sea Level Pressure  
Sea Level Pressure 30.12 in    
Wind  
Wind Speed 6 mph (WSW)    
Max Wind Speed 12 mph    
Max Gust Speed -    
Visibility 7 miles    
Events Snow    
Averages and records for this station are not official NWS values.
T = Trace of Precipitation, MM = Missing Value Source: NWS Daily Summary

Daily Weather History Graph

Daily Weather History Graph

Search for Another Location

Airport or City:

Trip Planner

Search our weather history database for the weather conditions in past years. The results will help you decide how hot, cold, wet, or windy it might be!

Date:

Astronomy

Dec. 29, 2012 Rise Set
Actual Time 7:51 AM CST 4:41 PM CST
Civil Twilight 7:17 AM CST 5:14 PM CST
Nautical Twilight 6:40 AM CST 5:51 PM CST
Astronomical Twilight 6:05 AM CST 6:27 PM CST
Moon 6:19 PM CST (12/29) 8:21 AM CST (12/29)
Length of Visible Light 9h 57m
Length of Day
8h 50m
Full, 98% of the Moon is Illuminated
Dec 29
Full
Jan 4
Last Quarter
Jan 11
New
Jan 18
First Quarter
Jan 26
Full

Hourly Weather History & Observations

Time (CST) Temp. Windchill Dew Point Humidity Pressure Visibility Wind Dir Wind Speed Gust Speed Precip Events Conditions
12:09 AM 14.0 °F 8.2 °F 10.4 °F 86% 30.02 in 7.0 mi NW 3.5 mph - N/A   Mostly Cloudy
12:53 AM 16.0 °F 10.4 °F 12.9 °F 88% 30.06 in 7.0 mi NW 3.5 mph - N/A   Overcast
1:53 AM 17.1 °F 10.0 °F 12.9 °F 84% 30.06 in 9.0 mi WNW 4.6 mph - N/A   Overcast
2:53 AM 17.1 °F 10.0 °F 12.9 °F 84% 30.07 in 10.0 mi WNW 4.6 mph - N/A   Overcast
3:53 AM 17.1 °F 10.0 °F 12.9 °F 84% 30.07 in 10.0 mi West 4.6 mph - N/A   Overcast
4:53 AM 18.0 °F 11.1 °F 14.0 °F 84% 30.08 in 10.0 mi West 4.6 mph - N/A   Overcast
5:53 AM 17.1 °F 8.7 °F 12.9 °F 84% 30.09 in 10.0 mi West 5.8 mph - N/A   Overcast
6:53 AM 15.1 °F 6.4 °F 10.9 °F 84% 30.10 in 10.0 mi West 5.8 mph - N/A   Overcast
7:53 AM 12.9 °F 6.9 °F 9.0 °F 84% 30.11 in 7.0 mi West 3.5 mph - N/A   Overcast
8:53 AM 12.0 °F 4.1 °F 8.1 °F 84% 30.12 in 5.0 mi WSW 4.6 mph - N/A   Overcast
9:03 AM 12.2 °F 4.3 °F 8.6 °F 85% 30.07 in 5.0 mi WSW 4.6 mph - N/A   Overcast
9:32 AM 14.0 °F 2.9 °F 10.4 °F 86% 30.07 in 4.0 mi West 8.1 mph - N/A   Overcast
9:53 AM 12.9 °F -0.2 °F 10.0 °F 88% 30.14 in 2.5 mi WSW 10.4 mph - 0.00 in Snow Light Snow
10:51 AM 12.2 °F -1.0 °F 6.8 °F 79% 30.09 in 4.0 mi WSW 10.4 mph - 0.00 in Snow Light Snow
10:53 AM 12.9 °F -0.9 °F 7.0 °F 77% 30.15 in 4.0 mi West 11.5 mph - 0.00 in Snow Light Snow
11:53 AM 14.0 °F 2.0 °F 8.1 °F 77% 30.13 in 3.0 mi West 9.2 mph - 0.00 in Snow Light Snow
12:03 PM 14.0 °F 2.0 °F 8.6 °F 79% 30.08 in 5.0 mi WSW 9.2 mph - 0.00 in   Haze
12:53 PM 14.0 °F 2.9 °F 8.1 °F 77% 30.12 in 6.0 mi WSW 8.1 mph - 0.00 in   Haze
1:00 PM 14.0 °F 0.5 °F 8.6 °F 79% 30.06 in 5.0 mi WSW 11.5 mph - N/A   Haze
1:53 PM 15.1 °F 2.5 °F 7.0 °F 70% 30.11 in 9.0 mi WSW 10.4 mph - N/A   Scattered Clouds
2:53 PM 14.0 °F 2.0 °F 6.1 °F 71% 30.12 in 9.0 mi SW 9.2 mph - N/A   Partly Cloudy
3:31 PM 12.2 °F -0.2 °F 6.8 °F 79% 30.08 in 9.0 mi SW 9.2 mph - N/A   Overcast
3:53 PM 12.9 °F 1.6 °F 6.1 °F 74% 30.14 in 8.0 mi WSW 8.1 mph - N/A   Overcast
5:25 PM 10.4 °F -0.4 °F 3.2 °F 73% 30.09 in 9.0 mi SW 6.9 mph - N/A   Scattered Clouds
5:53 PM 9.0 °F -3.2 °F 3.9 °F 80% 30.16 in 9.0 mi WSW 8.1 mph - N/A   Clear
6:53 PM 8.1 °F -4.3 °F 3.0 °F 80% 30.17 in 8.0 mi SW 8.1 mph - N/A   Clear
7:53 PM 5.0 °F -5.6 °F 1.9 °F 87% 30.19 in 7.0 mi WSW 5.8 mph - N/A   Clear
8:53 PM 3.0 °F -8.0 °F -0.0 °F 87% 30.19 in 6.0 mi SW 5.8 mph - N/A   Clear
9:53 PM 1.9 °F -9.2 °F -0.9 °F 88% 30.21 in 7.0 mi SW 5.8 mph - N/A   Clear
10:53 PM 1.9 °F -9.2 °F -0.9 °F 88% 30.23 in 7.0 mi SW 5.8 mph - N/A   Clear
11:53 PM 1.9 °F -7.6 °F -2.0 °F 83% 30.22 in 7.0 mi SSW 4.6 mph - N/A   Clear